Main page
METAR-TAF:

METAR-TAF

Airports :

Sania Ramel Airport

Tétouan, Morocco

latitude: 35-35N, longitude: 005-20W, elevation: 10 m

Current weather observation

The report was made 53 minutes ago, at 06:00 UTC
Wind 5 kt from the East/Southeast
Temperature 25°C
Humidity 83%
Pressure 1011 hPa
Visibility: 6000 m
Broken clouds at a height of 1100 ft

METAR: GMTN 130600Z 12005KT 6000 BKN011 25/22 Q1011 NOSIG

Time: 07:53 (06:53 UTC)


TAF: missing

Weather observations and forecasts of more than 4000 airports (METAR and TAF reports).

The available stations are represented by yellow and red dots on the map.

Hover mouse over dot to see the name of the station.

Then click to see weather observations and forecasts.

To change the map : click on the green buttons with a black cross to zoom in, on the green button with a dash to zoom out, or on the green arrows for adjacent maps.


METAR-TAF: